Regional Weather Roundup
Issued by NWS

Home | Current Version | Previous Version | Text Only | Print | Product List | Glossary On
Versions: 1 2 3 4 5 6 7 8 9 10 11 12 13 14 15 16 17 18 19 20 21 22 23 24 25 26 27 28 29 30 31 32 33 34 35 36 37 38 39 40 41 42 43 44 45 46 47 48 49 50
000
ASUS43 KOAX 252302
RWRNE

WEATHER ROUNDUP FOR NEBRASKA
NATIONAL WEATHER SERVICE OMAHA NE
600 PM CDT MON SEP 25 2017

NOTES: SATELLITE DATA IS BEING USED TO AUGMENT CLOUD COVER ABOVE
       12000 FEET.
       "FAIR" INDICATES FEW OR NO CLOUDS BELOW 12,000 FEET WITH NO
       SIGNIFICANT WEATHER AND/OR OBSTRUCTIONS TO VISIBILITY.


NEZ001>004-019>022-054>056-260000-
NEBRASKA PANHANDLE

CITY           SKY/WX    TMP DP  RH WIND       PRES   REMARKS
SCOTTSBLUFF    PTSUNNY   56  41  57 CALM      30.07F
ALLIANCE       CLOUDY    51  40  65 NE8       30.08S
CHADRON        MOSUNNY   53  40  61 E10       30.09S
GORDON         CLOUDY    50  42  72 NE6       30.10S
KIMBALL        CLOUDY    49  42  76 NE8       30.09F
SIDNEY         CLOUDY    50  41  71 N13       30.09F
$$

NEZ057>060-069>072-079>082-260000-
SOUTHWEST NEBRASKA

CITY           SKY/WX    TMP DP  RH WIND       PRES   REMARKS
NORTH PLATTE   CLOUDY    51  48  89 N9        30.05S
IMPERIAL       CLOUDY    50  47  89 N10       30.06S
LEXINGTON      CLOUDY    53  49  87 N10       30.02R
MCCOOK         LGT RAIN  52  51  97 N12       30.02S
OGALLALA       LGT RAIN  52  47  85 NE6       30.07S
$$

NEZ005>010-023>029-035>040-094-260000-
NORTH CENTRAL NEBRASKA

CITY           SKY/WX    TMP DP  RH WIND       PRES   REMARKS
VALENTINE      LGT RAIN  50  47  89 N7        30.09S FOG
AINSWORTH      CLOUDY    48  48  99 N10       30.08S
BROKEN BOW     LGT RAIN  51  48  89 N14       30.03R
O`NEILL        CLOUDY    50  50 100 N10       30.04S
ORD            CLOUDY    51  47  86 N8        30.01S
THEDFORD       LGT RAIN  50  46  87 N9        30.08S
$$

NEZ041-046>049-061>064-073>077-083>087-260000-
SOUTH CENTRAL NEBRASKA

CITY           SKY/WX    TMP DP  RH WIND       PRES   REMARKS
GRAND ISLAND   CLOUDY    53  53 100 N14       29.99R
AURORA         CLOUDY    53  53 100 N9G17     29.98S FOG
HASTINGS       CLOUDY    54  50  86 N13       29.99R
HEBRON         CLOUDY    59  58  97 N9G16     29.92F FOG
HOLDREGE       CLOUDY    52  49  92 N9G16     30.00R
KEARNEY        LGT RAIN  51  50  96 N16G22    30.00R FOG
YORK           CLOUDY    55  55 100 N13       29.96F FOG
$$

NEZ011>018-030>034-042>045-260000-
NORTHEAST NEBRASKA

CITY           SKY/WX    TMP DP  RH WIND       PRES   REMARKS
NORFOLK        LGT RAIN  54  53  97 N8        29.99S
ALBION         CLOUDY    53  51  94 N9G16     30.00S
BLAIR          CLOUDY    63  62  97 NW10      29.93S FOG
COLUMBUS       CLOUDY    56  53  90 N12       29.97F
FREMONT        CLOUDY    60  58  95 NW8       29.96S
TEKAMAH        LGT RAIN  60  58  92 N12       29.94S
WAYNE          CLOUDY    55  52  91 N10       30.00R FOG
$$

NEZ050>053-065>068-078-088>093-260000-
SOUTHEAST NEBRASKA

CITY           SKY/WX    TMP DP  RH WIND       PRES   REMARKS
LINCOLN        CLOUDY    62  60  93 N15       29.92F
OMAHA EPPLEY   CLOUDY    64  61  90 N10       29.92F
BEATRICE       LGT RAIN  64  63  97 NE6       29.92R
FALLS CITY     PTSUNNY   68  65  90 NE3       29.88S
NEBRASKA CITY  CLOUDY    65  65 100 N8        29.90S
PLATTSMOUTH    CLOUDY    65  65 100 NW6       29.91S
$$

NEZ044-045-051>053-067-260000-
OMAHA AREA

CITY           SKY/WX    TMP DP  RH WIND       PRES   REMARKS
OMAHA EPPLEY   CLOUDY    64  61  90 N10       29.92F
BLAIR          CLOUDY    63  62  97 NW10      29.93S FOG
FREMONT        CLOUDY    60  58  95 NW8       29.96S
MILLARD        LGT RAIN  65  63  95 NW7       29.93R
OFFUTT AFB     CLOUDY    66  63  91 NW6       29.91F
PLATTSMOUTH    CLOUDY    65  65 100 NW6       29.91S
WAHOO          CLOUDY    60  59  97 N13       29.94F FOG
$$




USA.gov is the U.S. government's official web portal to all federal, state and local government web resources and services.